DW9216 Weather Reports


time (UTC)temp
C
wind
direction
speed
KPH
gust
KPH
rain 1hr
cm
rain 24hr
cm
rain mn
cm
humidity
%
barometer
mb
20260507074949 15 208 0.0 1.6 0.00 0.00 0.00 38 1017.1
20260507073949 15 319 0.0 1.6 0.00 0.00 0.00 38 1017.0
20260507072950 15 5 0.0 3.2 0.00 0.00 0.00 38 1017.0
20260507071950 15 5 0.0 6.4 0.00 0.00 0.00 38 1016.9
20260507070950 15 20 0.0 3.2 0.00 0.00 0.00 38 1016.8
20260507065950 14 47 0.0 1.6 0.00 0.00 0.00 40 1016.7
20260507064950 14 1 0.0 0.0 0.00 0.00 0.00 40 1016.6
20260507063950 14 26 0.0 1.6 0.00 0.00 0.00 40 1016.5
20260507062950 14 40 0.0 0.0 0.00 0.00 0.00 39 1016.4
20260507061951 14 30 0.0 1.6 0.00 0.00 0.00 38 1016.3
20260507060950 15 27 0.0 1.6 0.00 0.00 0.00 37 1016.2
20260507055950 15 352 0.0 1.6 0.00 0.00 0.00 38 1016.2
20260507054950 15 54 0.0 4.8 0.00 0.00 0.00 37 1016.2
20260507053950 16 33 0.0 0.0 0.00 0.00 0.00 36 1016.1
20260507052950 16 33 0.0 3.2 0.00 0.00 0.00 37 1016.1
20260507051950 16 139 0.0 1.6 0.00 0.00 0.00 36 1016.2
20260507050950 16 29 0.0 3.2 0.00 0.00 0.00 35 1016.1
20260507045950 16 50 0.0 0.0 0.00 0.00 0.00 35 1015.9
20260507044950 17 37 0.0 3.2 0.00 0.00 0.00 34 1015.9
20260507043950 17 39 0.0 1.6 0.00 0.00 0.00 34 1015.8
20260507042950 18 37 0.0 1.6 0.00 0.00 0.00 33 1015.6
20260507041950 18 19 0.0 4.8 0.00 0.00 0.00 32 1015.6
20260507040950 18 25 0.0 1.6 0.00 0.00 0.00 33 1015.4
20260507035950 18 117 0.0 0.0 0.00 0.00 0.00 32 1015.2
20260507034950 19 35 0.0 1.6 0.00 0.00 0.00 31 1015.1
20260507033950 19 13 0.0 0.0 0.00 0.00 0.00 31 1014.9
20260507032950 20 68 0.0 1.6 0.00 0.00 0.00 30 1014.7
20260507031950 21 210 0.0 1.6 0.00 0.00 0.00 29 1014.5
20260507030950 21 156 0.0 8.0 0.00 0.00 0.00 28 1014.3
20260507025950 22 163 0.0 11.3 0.00 0.00 0.00 28 1014.1
20260507024950 22 174 3.2 12.9 0.00 0.00 0.00 27 1013.9
20260507023950 22 226 8.0 11.3 0.00 0.00 0.00 27 1013.8
20260507022950 22 208 0.0 6.4 0.00 0.00 0.00 27 1013.7
20260507021950 22 177 0.0 17.7 0.00 0.00 0.00 27 1013.6
20260507020950 22 188 3.2 12.9 0.00 0.00 0.00 27 1013.5
20260507015950 23 211 0.0 17.7 0.00 0.00 0.00 26 1013.4
20260507014950 23 142 1.6 11.3 0.00 0.00 0.00 25 1013.3
20260507013950 24 158 4.8 16.1 0.00 0.00 0.00 25 1013.2
20260507012950 25 170 0.0 19.3 0.00 0.00 0.00 25 1013.2
20260507011950 25 155 9.7 22.5 0.00 0.00 0.00 25 1013.1
20260507010950 25 212 0.0 19.3 0.00 0.00 0.00 24 1012.9
20260507005950 25 232 8.0 14.5 0.00 0.00 0.00 24 1013.0
20260507004950 25 183 3.2 24.1 0.00 0.00 0.00 24 1012.9
20260507003950 26 210 0.0 20.9 0.00 0.00 0.00 24 1012.9
20260507002950 26 105 3.2 17.7 0.00 0.00 0.00 24 1012.7
20260507001950 26 185 6.4 24.1 0.00 0.00 0.00 24 1012.9
20260507000950 25 153 8.0 24.1 0.00 0.00 0.00 24 1012.7
20260506235950 26 148 8.0 19.3 0.00 0.00 0.00 24 1012.6
20260506234950 26 146 12.9 25.7 0.00 0.00 0.00 24 1012.7
20260506233950 26 176 6.4 24.1 0.00 0.00 0.00 24 1012.7
20260506232950 26 174 11.3 27.4 0.00 0.00 0.00 24 1012.8
20260506231950 25 119 12.9 25.7 0.00 0.00 0.00 24 1012.9
20260506230950 26 170 12.9 24.1 0.00 0.00 0.00 24 1013.0
20260506225950 26 160 19.3 20.9 0.00 0.00 0.00 24 1013.0
20260506224951 26 119 12.9 24.1 0.00 0.00 0.00 24 1013.1
20260506223950 25 159 9.7 24.1 0.00 0.00 0.00 24 1013.2
20260506222951 25 167 19.3 20.9 0.00 0.00 0.00 24 1013.3
20260506221951 25 177 12.9 22.5 0.00 0.00 0.00 24 1013.4
20260506220950 26 236 16.1 24.1 0.00 0.00 0.00 24 1013.5
20260506215950 25 201 1.6 14.5 0.00 0.00 0.00 25 1013.6
20260506214950 25 145 1.6 19.3 0.00 0.00 0.00 25 1013.9
20260506213951 25 134 6.4 17.7 0.00 0.00 0.00 25 1014.0
20260506212950 25 174 6.4 17.7 0.00 0.00 0.00 24 1014.2
20260506211950 25 307 0.0 27.4 0.00 0.00 0.00 25 1014.2
20260506210950 25 156 16.1 25.7 0.00 0.00 0.00 25 1014.3
20260506205950 25 216 12.9 17.7 0.00 0.00 0.00 25 1014.5
20260506204951 24 217 0.0 16.1 0.00 0.00 0.00 25 1014.6
20260506203951 25 219 6.4 22.5 0.00 0.00 0.00 25 1014.7
20260506202951 24 158 6.4 20.9 0.00 0.00 0.00 25 1014.8
20260506201950 24 160 6.4 27.4 0.00 0.00 0.00 25 1014.8
20260506200951 24 77 6.4 27.4 0.00 0.00 0.00 25 1015.0
20260506195951 23 161 14.5 19.3 0.00 0.00 0.00 26 1015.1
20260506194951 23 155 16.1 19.3 0.00 0.00 0.00 26 1015.2
20260506193951 23 149 0.0 19.3 0.00 0.00 0.00 26 1015.3
20260506192951 23 134 8.0 19.3 0.00 0.00 0.00 27 1015.3
20260506191951 23 136 9.7 24.1 0.00 0.00 0.00 27 1015.3
20260506190951 22 91 3.2 14.5 0.00 0.00 0.00 27 1015.5
20260506185951 22 129 3.2 20.9 0.00 0.00 0.00 27 1015.6
20260506184951 22 203 9.7 12.9 0.00 0.00 0.00 27 1015.6
20260506183951 21 210 0.0 16.1 0.00 0.00 0.00 28 1015.8
20260506182951 22 68 3.2 14.5 0.00 0.00 0.00 27 1015.9
20260506181951 22 134 3.2 17.7 0.00 0.00 0.00 28 1016.0
20260506180951 21 122 8.0 14.5 0.00 0.00 0.00 28 1016.1
20260506175951 21 124 11.3 16.1 0.00 0.00 0.00 28 1016.2
20260506174951 21 70 0.0 11.3 0.00 0.00 0.00 28 1016.2
20260506173951 21 183 0.0 19.3 0.00 0.00 0.00 29 1016.3
20260506172951 21 111 6.4 17.7 0.00 0.00 0.00 29 1016.3
20260506171951 20 192 0.0 12.9 0.00 0.00 0.00 29 1016.4
20260506170951 20 109 3.2 9.7 0.00 0.00 0.00 30 1016.3
20260506165951 20 243 1.6 9.7 0.00 0.00 0.00 30 1016.2
20260506164952 20 136 6.4 11.3 0.00 0.00 0.00 31 1016.3
20260506163951 19 201 4.8 14.5 0.00 0.00 0.00 31 1016.2
20260506162951 19 108 4.8 11.3 0.00 0.00 0.00 32 1016.2
20260506161951 19 111 6.4 12.9 0.00 0.00 0.00 33 1016.2
20260506160951 18 58 0.0 9.7 0.00 0.00 0.00 33 1016.2
20260506155951 18 105 0.0 11.3 0.00 0.00 0.00 34 1016.1
20260506154951 18 113 0.0 8.0 0.00 0.00 0.00 34 1016.1
20260506153951 18 142 6.4 9.7 0.00 0.00 0.00 34 1016.1
20260506152951 17 121 0.0 8.0 0.00 0.00 0.00 35 1016.2
20260506151951 17 34 3.2 9.7 0.00 0.00 0.00 35 1016.2
20260506150951 17 163 0.0 8.0 0.00 0.00 0.00 36 1016.2
20260506145951 17 116 3.2 4.8 0.00 0.00 0.00 36 1016.2
20260506144952 16 132 1.6 9.7 0.00 0.00 0.00 37 1016.2
20260506143951 16 350 0.0 3.2 0.00 0.00 0.00 37 1016.0
20260506142951 16 6 1.6 8.0 0.00 0.00 0.00 38 1016.1
20260506141951 15 55 4.8 6.4 0.00 0.00 0.00 38 1016.2
20260506140951 15 53 0.0 3.2 0.00 0.00 0.00 39 1016.2
20260506135951 15 358 0.0 0.0 0.00 0.00 0.00 40 1016.1
20260506134951 13 210 0.0 1.6 0.00 0.00 0.00 42 1016.1
20260506133951 13 8 0.0 4.8 0.00 0.00 0.00 43 1016.1
20260506132951 13 34 0.0 3.2 0.00 0.00 0.00 44 1015.9
20260506131952 12 113 0.0 0.0 0.00 0.00 0.00 46 1015.8
20260506130951 10 146 0.0 3.2 0.00 0.00 0.00 50 1015.5
20260506125951 10 208 0.0 3.2 0.00 0.00 0.00 51 1015.3
20260506124952 10 91 0.0 1.6 0.00 0.00 0.00 52 1015.2
20260506123951 8 163 0.0 0.0 0.00 0.00 0.00 55 1015.1
20260506122951 8 222 0.0 0.0 0.00 0.00 0.00 53 1015.0
20260506121952 8 15 0.0 0.0 0.00 0.00 0.00 53 1015.0
20260506120951 8 13 0.0 1.6 0.00 0.00 0.00 52 1015.0
20260506115952 9 13 0.0 0.0 0.00 0.00 0.00 51 1014.9
20260506114952 10 13 0.0 0.0 0.00 0.00 0.00 50 1014.9
20260506113951 10 31 0.0 1.6 0.00 0.00 0.00 49 1014.8
20260506112952 10 36 0.0 4.8 0.00 0.00 0.00 49 1014.9
20260506111952 10 51 0.0 4.8 0.00 0.00 0.00 49 1014.8
20260506110952 10 43 0.0 0.0 0.00 0.00 0.00 48 1014.8
20260506105952 11 33 1.6 11.3 0.00 0.00 0.00 47 1014.8
20260506104952 10 26 8.0 11.3 0.00 0.00 0.00 48 1014.7
20260506103952 10 12 4.8 6.4 0.00 0.00 0.00 49 1014.6
20260506102952 10 347 0.0 4.8 0.00 0.00 0.00 50 1014.5
20260506101952 10 117 0.0 1.6 0.00 0.00 0.00 48 1014.5
20260506100952 10 104 0.0 0.0 0.00 0.00 0.00 48 1014.3
20260506095952 11 88 0.0 1.6 0.00 0.00 0.00 46 1014.4
20260506093952 11 70 0.0 4.8 0.00 0.00 0.00 46 1014.3
20260506092952 11 68 0.0 3.2 0.00 0.00 0.00 46 1014.2
20260506091952 11 84 0.0 3.2 0.00 0.00 0.00 47 1014.2
20260506090952 10 32 0.0 1.6 0.00 0.00 0.00 48 1014.1
20260506085952 11 242 0.0 3.2 0.00 0.00 0.00 47 1014.0
20260506084953 11 37 4.8 8.0 0.00 0.00 0.00 47 1014.0
20260506083952 10 33 3.2 6.4 0.00 0.00 0.00 51 1014.1
20260506082952 9 41 0.0 0.0 0.00 0.00 0.00 49 1014.0
20260506081952 10 40 0.0 1.6 0.00 0.00 0.00 48 1014.1
20260506080953 10 73 0.0 0.0 0.00 0.00 0.00 49 1013.9